Flag for New Zealand Weather past 2 weeks in Christchurch, New Zealand

Now
39 °F

Passing clouds.


Feels Like: 34 °F
Forecast: 36 / 49 °F
Wind: 8 mph from West

Location: Christchurch Airport

Current Time: Jul 30, 2015 at 12:24:14 AM

Latest Report: Jul 30, 2015 at 12:00 AM


Visibility: N/A

Pressure: 30.24 "Hg

Humidity: 81%

Dew point: 34 °F

Location of ChristchurchLocation

Historic Weather in Christchurch — Graph

°F

Christchurch temperature yesterday

Maximum temperature yesterday: 52 °F (at 12:30 PM)
Minimum temperature yesterday: 37 °F (at 7:30 AM)
Average temperature yesterday: 44 °F

Past Weeks' High & Low Weather Summary

 TemperatureHumidityPressure
High68 °F (Jul 26, 2:30 PM)100% (Jul 16, 7:00 PM)30.60 "Hg (Jul 16, 7:00 PM)
Low27 °F (Jul 20, 8:00 AM)34% (Jul 26, 5:00 PM)29.30 "Hg (Jul 18, 1:00 PM)
Average45 °F75%29.97 "Hg
* Reported Jul 14 11:00 PM — Jul 29 11:00 PM, Christchurch, Weather by CustomWeather, © 2015

Note: Actual official high and low records may vary slightly from our data, if they occured in-between our weather recording intervals... More about our weather records

Advertising

Christchurch weather history for previous 24 hours

 ConditionsComfort  
Time TempWeatherWind HumidityBarometerVisibility
11:00 PM
Wed, Jul 29
41 °FPassing clouds.8 mph76%30.24 "HgN/A
10:30 PM41 °FPassing clouds.8 mph76%30.21 "HgN/A
10:00 PM43 °FPartly cloudy.13 mph71%30.21 "HgN/A
9:30 PM41 °FPassing clouds.9 mph76%30.21 "HgN/A
9:00 PM41 °FPassing clouds.12 mph76%30.21 "HgN/A
8:30 PM41 °FPassing clouds.20 mph76%30.18 "HgN/A
7:30 PM43 °FPassing clouds.16 mph71%30.15 "HgN/A
7:00 PM43 °FPassing clouds.14 mph66%30.12 "HgN/A
6:30 PM43 °FPassing clouds.20 mph71%30.09 "HgN/A
6:00 PM43 °FPassing clouds.20 mph71%30.07 "HgN/A
5:30 PM43 °FPassing clouds.23 mph76%30.07 "HgN/A
5:00 PM43 °FPartly cloudy.21 mph81%30.04 "HgN/A
4:30 PM45 °FPassing clouds.23 mph76%30.04 "HgN/A
4:00 PM46 °FPassing clouds.24 mph71%30.01 "HgN/A
3:30 PM46 °FCool.25 mph71%29.98 "HgN/A
3:00 PM48 °FCool.29 mph66%29.98 "HgN/A
2:30 PM48 °FCool.26 mph66%29.95 "HgN/A
2:00 PM50 °FCool.31 mph62%29.95 "HgN/A
1:30 PM50 °FCool.25 mph62%29.95 "HgN/A
1:00 PM50 °FScattered clouds.26 mph58%29.92 "HgN/A
12:30 PM52 °FCool.18 mph58%29.92 "HgN/A
12:00 PM50 °FPassing clouds.10 mph67%29.92 "HgN/A
11:30 AM50 °FPassing clouds.9 mph67%29.92 "HgN/A
11:00 AM48 °FScattered clouds.5 mph71%29.89 "HgN/A
10:30 AM46 °FMostly cloudy.3 mph76%29.89 "HgN/A
10:00 AM45 °FOvercast.5 mph81%29.89 "HgN/A
9:30 AM45 °FBroken clouds.5 mph76%29.86 "HgN/A
9:00 AM43 °FSprinkles. Mostly cloudy.6 mph81%29.86 "HgN/A
8:30 AM41 °FPartly sunny.3 mph87%29.83 "HgN/A
8:00 AM39 °FBroken clouds.3 mph93%29.83 "HgN/A
7:30 AM37 °FPassing clouds.3 mph87%29.80 "HgN/A
7:00 AM41 °FPartly sunny.7 mph87%29.77 "HgN/A
6:30 AM41 °FPassing clouds.6 mph87%29.77 "HgN/A
6:00 AM41 °FPassing clouds.6 mph87%29.77 "HgN/A
5:30 AM41 °FQuite cool.6 mph87%29.74 "HgN/A
5:00 AM41 °FPassing clouds.7 mph93%29.74 "HgN/A
4:30 AM41 °FPassing clouds.7 mph93%29.74 "HgN/A
4:00 AM41 °FPassing clouds.7 mph93%29.74 "HgN/A
3:30 AM41 °FQuite cool.7 mph93%29.71 "HgN/A
3:00 AM43 °FPassing clouds.7 mph87%29.71 "HgN/A
2:30 AM43 °FQuite cool.6 mph87%29.71 "HgN/A
2:00 AM43 °FPassing clouds.7 mph93%29.71 "HgN/A
1:30 AM43 °FPassing clouds.6 mph93%29.68 "HgN/A
1:00 AM45 °FSprinkles. Passing clouds.8 mph87%29.68 "HgN/A
12:30 AM45 °FPartly cloudy.9 mph87%29.68 "HgN/A
12:00 AM45 °FPassing clouds.7 mph93%29.68 "HgN/A
Weather by CustomWeather, © 2015

See weather overviewHow to use our weather pages